Regional Weather Roundup
Issued by NWS Newport/Morehead, NC

Current Version | Previous Version | Graphics & Text | Print | Product List | Glossary On
Versions: 1 2 3 4 5 6 7 8 9 10 11 12 13 14 15 16 17 18 19 20 21 22 23 24 25 26 27 28 29 30 31 32 33 34 35 36 37 38 39 40 41 42 43 44 45 46 47 48 49 50
053 ASUS42 KMHX 261825 RWRMHX WEATHER ROUNDUP FOR EASTERN NORTH CAROLINA NATIONAL WEATHER SERVICE NEWPORT/MOREHEAD CITY NC 200 PM EDT MON SEP 26 2016 NOTE: "FAIR" INDICATES FEW OR NO CLOUDS BELOW 12,000 FEET WITH NO SIGNIFICANT WEATHER AND/OR OBSTRUCTIONS TO VISIBILITY NCZ015>017-031-032-045>047-102-103-261900- NORTH COAST CITY SKY/WX TMP DP RH WIND PRES REMARKS EDENTON NOT AVBL ELIZABETH CITY CLOUDY 76 62 62 SE6 30.10F KITTY HAWK CLEAR 80 67 64 E5 30.09F MANTEO SUNNY 76 64 65 E10 30.10F $$ NCZ045>047-081-094-103-104-261900- CENTRAL COAST CITY SKY/WX TMP DP RH WIND PRES REMARKS FRISCO MOSUNNY 80 66 62 VRB6 30.10F $$ NCZ095-097-098-100-101-261900- SOUTHERN COAST CITY SKY/WX TMP DP RH WIND PRES REMARKS BEAUFORT SUNNY 80 66 62 SE9 30.09F CEDAR ISLAND NOT AVBL JACKSONVILLE MOSUNNY 81 62 52 E5 30.08F PINEY ISLAND MOCLDY N/A N/A N/A NE9 30.10F WILMINGTON MOSUNNY 81 67 62 E10 30.09F $$ NCZ011>013-027>030-043-044-078>080-089-090>093-098-261900- COASTAL PLAIN CITY SKY/WX TMP DP RH WIND PRES REMARKS AHOSKIE MOSUNNY 74 63 69 SE7 30.10F CLINTON SUNNY 80 66 62 CALM 30.09F ELIZABETHTOWN SUNNY 83 65 55 SE7 30.07F GOLDSBORO PTSUNNY 78 65 63 VRB1 30.08F GREENVILLE CLOUDY 77 61 57 SE5 30.11F HAVELOCK SUNNY 80 66 62 NE10G20 30.11F KENANSVILLE CLOUDY 79 64 61 E3 30.09F KINSTON MOSUNNY 79 63 57 E6 30.11F NEW BERN CLOUDY 79 62 56 CALM 30.11F RICHLANDS NOT AVBL ROCKY MOUNT PTSUNNY 77 64 64 VRB5 30.10F WASHINGTON PTSUNNY 74 61 63 CALM 30.11F WHITEVILLE NOT AVBL $$ AMZ130-135-150-152-154-156-158-170-250-252-270-ANZ085-086-088-633-658-670-261900- MARINE OBSERVATIONS STATION/POSITION TIME TEMP WIND PRES WAVE SWELL AIR SEA DIR/SP/G HT/PER HT/PER (UTC) (F) (DEG/KT/KT) (MB) (FT/S) (FT/S) CHESAPEAKE LIGHT NOT AVBL 64 E VA BEACH 1750 74 76 110/ 10/ 12 1019.5 3/ 9 3/ 9 DUCK 1800 75 76 100/ 12/ 14 1018.7 2 E DUCK 1741 77 N/A 3/ 8 OREGON INLET 1800 75 76 40/ 9/ 10 1019.0 13E OREGON INLT 1800 77 N/A 3/ 9 3/ 6 HATTERAS CG 1800 74 76 10/ 10/ 12 1018.8 DIAMOND BUOY 1750 78 78 120/ 8/ 10 1019.0 3/ 8 3/ 8 CAPE LOOKOUT 1800 75 60/ 10/ 12 1018.9 BEAUFORT LAB 1800 76 76 130/ 8/ 10 1018.4 30 SE NEW RVR IN 1808 78 82 60/ 14/ 16 1018.5 30 SE NEW RVR IN 1755 82 N/A 3/ 8 27 SE WRIGHTSVLE 1808 79 81 70/ 14/ 17 1018.4 5 SE WRIGHTSVLE 1808 78 81 80/ 12/ 16 1019.5 225 S CAPE HAT 1750 79 84 70/ 19/ 23 1016.8 6/ 9 3/ 9 41 SE CHARLESTON 1750 78 82 130/ 8/ 8 1016.7 4/ 6 3/ 6 $$

USA.gov is the U.S. government's official web portal to all federal, state and local government web resources and services.